Time,TemperatureF,DewpointF,PressureIn,WindDirection,WindDirectionDegrees,WindSpeedMPH,WindSpeedGustMPH,Humidity,HourlyPrecipIn,Conditions,Clouds,dailyrainin,SoftwareType,DateUTC
2013-07-17 00:04:00,72.9,57.7,29.87,WNW,302,0.0,0.0,59,0.00,CLR,,0.00,WeatherDisplay:10.37,2013-07-17 07:04:00,
2013-07-17 00:09:00,72.7,57.5,29.87,WNW,302,0.0,0.0,59,0.00,CLR,,0.00,WeatherDisplay:10.37,2013-07-17 07:09:00,
2013-07-17 00:14:00,72.5,57.4,29.87,WNW,302,0.0,0.0,59,0.00,CLR,,0.00,WeatherDisplay:10.37,2013-07-17 07:14:00,
2013-07-17 00:19:00,72.2,57.5,29.87,WNW,302,1.2,0.0,60,0.00,CLR,,0.00,WeatherDisplay:10.37,2013-07-17 07:19:00,
2013-07-17 00:24:00,72.0,57.4,29.88,WNW,302,0.0,0.0,60,0.00,CLR,,0.00,WeatherDisplay:10.37,2013-07-17 07:24:00,
2013-07-17 00:29:00,71.7,57.1,29.88,WNW,300,1.2,0.0,60,0.00,CLR,,0.00,WeatherDisplay:10.37,2013-07-17 07:29:00,
2013-07-17 00:34:00,71.5,56.9,29.88,WNW,288,0.0,0.0,60,0.00,CLR,,0.00,WeatherDisplay:10.37,2013-07-17 07:34:00,
2013-07-17 00:39:00,71.4,57.2,29.88,WNW,288,0.0,0.0,61,0.00,CLR,,0.00,WeatherDisplay:10.37,2013-07-17 07:39:00,
2013-07-17 00:44:00,71.2,57.1,29.88,WNW,288,0.0,0.0,61,0.00,CLR,,0.00,WeatherDisplay:10.37,2013-07-17 07:44:00,
2013-07-17 00:49:00,71.0,57.3,29.88,WNW,288,0.0,0.0,62,0.00,CLR,,0.00,WeatherDisplay:10.37,2013-07-17 07:49:00,
2013-07-17 00:54:00,70.8,57.1,29.88,WNW,288,0.0,0.0,62,0.00,CLR,,0.00,WeatherDisplay:10.37,2013-07-17 07:54:00,
2013-07-17 00:59:00,70.6,56.9,29.88,West,276,0.0,0.0,62,0.00,CLR,,0.00,WeatherDisplay:10.37,2013-07-17 07:59:00,
2013-07-17 01:04:00,70.5,57.3,29.89,SW,231,1.2,0.0,63,0.00,CLR,,0.00,WeatherDisplay:10.37,2013-07-17 08:04:00,
2013-07-17 01:09:00,70.3,57.1,29.89,SW,231,0.0,0.0,63,0.00,CLR,,0.00,WeatherDisplay:10.37,2013-07-17 08:09:00,
2013-07-17 01:14:00,70.2,57.0,29.89,WSW,240,1.2,0.0,63,0.00,CLR,,0.00,WeatherDisplay:10.37,2013-07-17 08:14:00,
2013-07-17 01:19:00,70.1,57.4,29.89,WSW,240,0.0,0.0,64,0.00,CLR,,0.00,WeatherDisplay:10.37,2013-07-17 08:19:00,
2013-07-17 01:24:00,69.9,57.2,29.89,WSW,240,0.0,0.0,64,0.00,CLR,,0.00,WeatherDisplay:10.37,2013-07-17 08:24:00,
2013-07-17 01:29:00,69.6,56.9,29.89,WSW,240,0.0,0.0,64,0.00,CLR,,0.00,WeatherDisplay:10.37,2013-07-17 08:29:00,
2013-07-17 01:34:00,69.4,57.1,29.89,WSW,240,0.0,0.0,65,0.00,CLR,,0.00,WeatherDisplay:10.37,2013-07-17 08:34:00,
2013-07-17 01:39:00,69.2,57.4,29.89,WSW,240,0.0,0.0,66,0.00,CLR,,0.00,WeatherDisplay:10.37,2013-07-17 08:39:00,
2013-07-17 01:44:00,69.0,57.2,29.90,WSW,240,0.0,0.0,66,0.00,CLR,,0.00,WeatherDisplay:10.37,2013-07-17 08:44:00,
2013-07-17 01:49:00,68.7,57.3,29.90,WSW,240,0.0,0.0,67,0.00,CLR,,0.00,WeatherDisplay:10.37,2013-07-17 08:49:00,
2013-07-17 01:54:00,68.3,57.3,29.90,WSW,240,0.0,0.0,68,0.00,CLR,,0.00,WeatherDisplay:10.37,2013-07-17 08:54:00,
2013-07-17 01:59:00,68.0,57.4,29.90,WSW,240,0.0,0.0,69,0.00,CLR,,0.00,WeatherDisplay:10.37,2013-07-17 08:59:00,
2013-07-17 02:04:00,67.7,57.2,29.90,WSW,240,0.0,0.0,69,0.00,CLR,,0.00,WeatherDisplay:10.37,2013-07-17 09:04:00,
2013-07-17 02:09:00,67.4,57.3,29.90,WSW,240,0.0,0.0,70,0.00,CLR,,0.00,WeatherDisplay:10.37,2013-07-17 09:09:00,
2013-07-17 02:14:00,67.1,57.4,29.90,WSW,240,0.0,0.0,71,0.00,CLR,,0.00,WeatherDisplay:10.37,2013-07-17 09:14:00,
2013-07-17 02:19:00,66.8,57.1,29.90,WSW,240,0.0,0.0,71,0.00,CLR,,0.00,WeatherDisplay:10.37,2013-07-17 09:19:00,
2013-07-17 02:24:00,66.5,56.8,29.90,WSW,240,0.0,0.0,71,0.00,CLR,,0.00,WeatherDisplay:10.37,2013-07-17 09:24:00,
2013-07-17 02:29:00,66.2,56.9,29.90,WSW,240,0.0,0.0,72,0.00,CLR,,0.00,WeatherDisplay:10.37,2013-07-17 09:29:00,
2013-07-17 02:34:00,66.1,57.2,29.91,WSW,240,0.0,0.0,73,0.00,CLR,,0.00,WeatherDisplay:10.37,2013-07-17 09:34:00,
2013-07-17 02:39:00,66.1,57.2,29.91,WSW,241,0.0,0.0,73,0.00,CLR,,0.00,WeatherDisplay:10.37,2013-07-17 09:39:00,
2013-07-17 02:44:00,66.0,57.1,29.91,WSW,240,0.0,0.0,73,0.00,CLR,,0.00,WeatherDisplay:10.37,2013-07-17 09:44:00,
2013-07-17 02:49:00,65.9,57.4,29.91,WSW,240,0.0,0.0,74,0.00,CLR,,0.00,WeatherDisplay:10.37,2013-07-17 09:49:00,
2013-07-17 02:54:00,65.7,57.2,29.91,WSW,240,0.0,0.0,74,0.00,CLR,,0.00,WeatherDisplay:10.37,2013-07-17 09:54:00,
2013-07-17 02:59:00,65.5,57.4,29.90,WSW,240,0.0,0.0,75,0.00,CLR,,0.00,WeatherDisplay:10.37,2013-07-17 09:59:00,
2013-07-17 03:04:00,65.4,56.9,29.91,WSW,240,0.0,0.0,74,0.00,CLR,,0.00,WeatherDisplay:10.37,2013-07-17 10:04:00,
2013-07-17 03:09:00,65.2,57.1,29.91,WSW,240,0.0,0.0,75,0.00,CLR,,0.00,WeatherDisplay:10.37,2013-07-17 10:09:00,
2013-07-17 03:14:00,65.0,57.2,29.91,WSW,240,0.0,0.0,76,0.00,CLR,,0.00,WeatherDisplay:10.37,2013-07-17 10:14:00,
2013-07-17 03:22:00,64.7,57.0,29.91,WSW,240,0.0,0.0,76,0.00,CLR,,0.00,WeatherDisplay:10.37,2013-07-17 10:22:00,
2013-07-17 03:27:00,64.5,56.8,29.91,WSW,240,0.0,0.0,76,0.00,CLR,,0.00,WeatherDisplay:10.37,2013-07-17 10:27:00,
2013-07-17 03:32:00,64.4,57.0,29.91,WSW,240,0.0,0.0,77,0.00,CLR,,0.00,WeatherDisplay:10.37,2013-07-17 10:32:00,
2013-07-17 03:37:00,64.2,57.2,29.91,WSW,240,0.0,0.0,78,0.00,CLR,,0.00,WeatherDisplay:10.37,2013-07-17 10:37:00,
2013-07-17 03:42:00,64.1,57.1,29.91,WSW,240,0.0,0.0,78,0.00,CLR,,0.00,WeatherDisplay:10.37,2013-07-17 10:42:00,
2013-07-17 03:47:00,64.0,57.4,29.91,WSW,240,0.0,0.0,79,0.00,CLR,,0.00,WeatherDisplay:10.37,2013-07-17 10:47:00,
2013-07-17 03:52:00,63.8,56.8,29.91,WSW,240,0.0,0.0,78,0.00,CLR,,0.00,WeatherDisplay:10.37,2013-07-17 10:52:00,
2013-07-17 03:57:00,63.6,57.0,29.91,WSW,240,0.0,0.0,79,0.00,CLR,,0.00,WeatherDisplay:10.37,2013-07-17 10:57:00,
2013-07-17 04:02:00,63.4,57.1,29.91,WSW,240,0.0,0.0,80,0.00,CLR,,0.00,WeatherDisplay:10.37,2013-07-17 11:02:00,
2013-07-17 04:07:00,63.3,57.0,29.91,WSW,240,0.0,0.0,80,0.00,CLR,,0.00,WeatherDisplay:10.37,2013-07-17 11:07:00,
2013-07-17 04:12:00,63.1,56.8,29.92,WSW,240,0.0,0.0,80,0.00,CLR,,0.00,WeatherDisplay:10.37,2013-07-17 11:12:00,
2013-07-17 04:17:00,63.0,57.1,29.92,WSW,240,0.0,0.0,81,0.00,CLR,,0.00,WeatherDisplay:10.37,2013-07-17 11:17:00,
2013-07-17 04:22:00,63.1,57.2,29.92,WSW,240,0.0,0.0,81,0.00,CLR,,0.00,WeatherDisplay:10.37,2013-07-17 11:22:00,
2013-07-17 04:27:00,63.2,57.3,29.92,WSW,240,0.0,0.0,81,0.00,CLR,,0.00,WeatherDisplay:10.37,2013-07-17 11:27:00,
2013-07-17 04:32:00,63.4,57.1,29.93,WSW,240,0.0,0.0,80,0.00,CLR,,0.00,WeatherDisplay:10.37,2013-07-17 11:32:00,
2013-07-17 04:37:00,63.4,57.1,29.93,WSW,240,0.0,0.0,80,0.00,CLR,,0.00,WeatherDisplay:10.37,2013-07-17 11:37:00,
2013-07-17 04:42:00,63.4,56.8,29.93,WSW,240,0.0,0.0,79,0.00,CLR,,0.00,WeatherDisplay:10.37,2013-07-17 11:42:00,
2013-07-17 04:47:00,63.3,56.7,29.93,WSW,240,0.0,0.0,79,0.00,CLR,,0.00,WeatherDisplay:10.37,2013-07-17 11:47:00,
2013-07-17 04:52:00,63.2,56.6,29.93,WSW,240,0.0,0.0,79,0.00,CLR,,0.00,WeatherDisplay:10.37,2013-07-17 11:52:00,
2013-07-17 04:57:00,63.1,56.5,29.93,WSW,240,0.0,0.0,79,0.00,CLR,,0.00,WeatherDisplay:10.37,2013-07-17 11:57:00,
2013-07-17 05:02:00,62.9,56.3,29.93,WSW,240,0.0,0.0,79,0.00,CLR,,0.00,WeatherDisplay:10.37,2013-07-17 12:02:00,
2013-07-17 05:07:00,62.8,56.2,29.93,WSW,240,0.0,0.0,79,0.00,CLR,,0.00,WeatherDisplay:10.37,2013-07-17 12:07:00,
2013-07-17 05:12:00,62.8,56.2,29.94,WSW,240,0.0,0.0,79,0.00,CLR,,0.00,WeatherDisplay:10.37,2013-07-17 12:12:00,
2013-07-17 05:17:00,62.6,56.3,29.94,WSW,240,0.0,0.0,80,0.00,CLR,,0.00,WeatherDisplay:10.37,2013-07-17 12:17:00,
2013-07-17 05:22:00,62.6,56.3,29.94,WSW,240,0.0,0.0,80,0.00,CLR,,0.00,WeatherDisplay:10.37,2013-07-17 12:22:00,
2013-07-17 05:27:00,62.5,56.6,29.94,WSW,240,0.0,0.0,81,0.00,CLR,,0.00,WeatherDisplay:10.37,2013-07-17 12:27:00,
2013-07-17 05:32:00,62.3,56.4,29.94,WSW,240,0.0,0.0,81,0.00,CLR,,0.00,WeatherDisplay:10.37,2013-07-17 12:32:00,
2013-07-17 05:37:00,62.1,56.2,29.95,WSW,240,0.0,0.0,81,0.00,CLR,,0.00,WeatherDisplay:10.37,2013-07-17 12:37:00,
2013-07-17 05:42:00,61.8,55.9,29.95,WSW,240,0.0,0.0,81,0.00,CLR,,0.00,WeatherDisplay:10.37,2013-07-17 12:42:00,
2013-07-17 05:47:00,61.6,56.0,29.95,WSW,240,0.0,0.0,82,0.00,CLR,,0.00,WeatherDisplay:10.37,2013-07-17 12:47:00,
2013-07-17 05:52:00,61.5,56.0,29.95,WSW,240,0.0,0.0,82,0.00,CLR,,0.00,WeatherDisplay:10.37,2013-07-17 12:52:00,
2013-07-17 05:57:00,61.4,56.2,29.95,WSW,240,0.0,0.0,83,0.00,CLR,,0.00,WeatherDisplay:10.37,2013-07-17 12:57:00,
2013-07-17 06:02:00,61.4,56.2,29.95,WSW,240,0.0,0.0,83,0.00,CLR,,0.00,WeatherDisplay:10.37,2013-07-17 13:02:00,
2013-07-17 06:07:00,61.3,56.1,29.95,WSW,240,0.0,0.0,83,0.00,CLR,,0.00,WeatherDisplay:10.37,2013-07-17 13:07:00,
2013-07-17 06:12:00,61.3,56.1,29.95,WSW,240,0.0,0.0,83,0.00,CLR,,0.00,WeatherDisplay:10.37,2013-07-17 13:12:00,
2013-07-17 06:17:00,61.3,56.1,29.96,WSW,240,0.0,0.0,83,0.00,CLR,,0.00,WeatherDisplay:10.37,2013-07-17 13:17:00,
2013-07-17 06:22:00,61.3,56.1,29.96,WSW,240,0.0,0.0,83,0.00,CLR,,0.00,WeatherDisplay:10.37,2013-07-17 13:22:00,
2013-07-17 06:27:00,61.3,56.1,29.96,WSW,240,0.0,0.0,83,0.00,CLR,,0.00,WeatherDisplay:10.37,2013-07-17 13:27:00,
2013-07-17 06:32:00,61.4,56.2,29.96,WSW,240,0.0,0.0,83,0.00,CLR,,0.00,WeatherDisplay:10.37,2013-07-17 13:32:00,
2013-07-17 06:37:00,61.5,56.3,29.97,WSW,240,0.0,0.0,83,0.00,CLR,,0.00,WeatherDisplay:10.37,2013-07-17 13:37:00,
2013-07-17 06:42:00,61.6,56.4,29.97,WSW,240,0.0,0.0,83,0.00,CLR,,0.00,WeatherDisplay:10.37,2013-07-17 13:42:00,
2013-07-17 06:47:00,61.7,56.5,29.97,WSW,240,0.0,0.0,83,0.00,CLR,,0.00,WeatherDisplay:10.37,2013-07-17 13:47:00,
2013-07-17 06:52:00,61.8,56.6,29.97,WSW,240,0.0,0.0,83,0.00,CLR,,0.00,WeatherDisplay:10.37,2013-07-17 13:52:00,
2013-07-17 06:57:00,62.0,56.4,29.97,WSW,240,0.0,0.0,82,0.00,CLR,,0.00,WeatherDisplay:10.37,2013-07-17 13:57:00,
2013-07-17 07:02:00,62.2,56.6,29.97,WSW,240,1.2,1.2,82,0.00,CLR,,0.00,WeatherDisplay:10.37,2013-07-17 14:02:00,
2013-07-17 07:07:00,62.5,56.6,29.98,WSW,240,0.0,0.0,81,0.00,CLR,,0.00,WeatherDisplay:10.37,2013-07-17 14:07:00,
2013-07-17 07:12:00,62.8,56.9,29.98,WSW,240,0.0,0.0,81,0.00,CLR,,0.00,WeatherDisplay:10.37,2013-07-17 14:12:00,
2013-07-17 07:17:00,63.0,56.7,29.98,WSW,240,0.0,0.0,80,0.00,CLR,,0.00,WeatherDisplay:10.37,2013-07-17 14:17:00,
2013-07-17 07:22:00,63.2,56.9,29.98,WSW,240,0.0,0.0,80,0.00,CLR,,0.00,WeatherDisplay:10.37,2013-07-17 14:22:00,
2013-07-17 07:27:00,63.4,57.1,29.98,WSW,240,0.0,0.0,80,0.00,CLR,,0.00,WeatherDisplay:10.37,2013-07-17 14:27:00,
2013-07-17 07:32:00,63.8,57.5,29.98,WSW,240,0.0,0.0,80,0.00,CLR,,0.00,WeatherDisplay:10.37,2013-07-17 14:32:00,
2013-07-17 07:37:00,64.0,57.7,29.98,WSW,240,0.0,0.0,80,0.00,CLR,,0.00,WeatherDisplay:10.37,2013-07-17 14:37:00,
2013-07-17 07:42:00,64.2,57.9,29.99,WSW,240,0.0,0.0,80,0.00,CLR,,0.00,WeatherDisplay:10.37,2013-07-17 14:42:00,
2013-07-17 07:47:00,64.5,58.2,29.99,WSW,240,0.0,0.0,80,0.00,CLR,,0.00,WeatherDisplay:10.37,2013-07-17 14:47:00,
2013-07-17 07:52:00,64.8,59.5,29.99,WSW,244,0.0,0.0,83,0.00,CLR,,0.00,WeatherDisplay:10.37,2013-07-17 14:52:00,
2013-07-17 07:57:00,64.9,59.3,29.99,WSW,243,0.0,0.0,82,0.00,CLR,,0.00,WeatherDisplay:10.37,2013-07-17 14:57:00,
2013-07-17 08:02:00,64.9,58.2,29.99,WSW,243,0.0,0.0,79,0.00,CLR,,0.00,WeatherDisplay:10.37,2013-07-17 15:02:00,
2013-07-17 08:07:00,65.2,58.2,29.99,WSW,243,0.0,0.0,78,0.00,CLR,,0.00,WeatherDisplay:10.37,2013-07-17 15:07:00,
2013-07-17 08:12:00,65.6,58.2,29.99,SW,235,0.0,0.0,77,0.00,CLR,,0.00,WeatherDisplay:10.37,2013-07-17 15:12:00,
2013-07-17 08:17:00,66.0,58.6,29.99,SW,235,0.0,0.0,77,0.00,CLR,,0.00,WeatherDisplay:10.37,2013-07-17 15:17:00,
2013-07-17 08:22:00,66.3,58.1,29.99,SW,232,0.0,0.0,75,0.00,CLR,,0.00,WeatherDisplay:10.37,2013-07-17 15:22:00,
2013-07-17 08:27:00,66.7,58.1,30.00,WSW,246,0.0,0.0,74,0.00,CLR,,0.00,WeatherDisplay:10.37,2013-07-17 15:27:00,
2013-07-17 08:32:00,67.2,58.6,30.00,West,274,0.0,0.0,74,0.00,CLR,,0.00,WeatherDisplay:10.37,2013-07-17 15:32:00,
2013-07-17 08:37:00,67.6,59.0,30.00,WSW,246,0.0,0.0,74,0.00,CLR,,0.00,WeatherDisplay:10.37,2013-07-17 15:37:00,
2013-07-17 08:42:00,67.9,58.5,30.00,West,259,1.2,1.2,72,0.00,CLR,,0.00,WeatherDisplay:10.37,2013-07-17 15:42:00,
2013-07-17 08:47:00,68.2,58.8,30.00,West,259,0.0,0.0,72,0.00,CLR,,0.00,WeatherDisplay:10.37,2013-07-17 15:47:00,
2013-07-17 08:52:00,68.4,58.6,30.00,SSW,201,0.0,0.0,71,0.00,CLR,,0.00,WeatherDisplay:10.37,2013-07-17 15:52:00,
2013-07-17 08:57:00,68.6,58.8,29.99,WNW,302,0.0,0.0,71,0.00,CLR,,0.00,WeatherDisplay:10.37,2013-07-17 15:57:00,
2013-07-17 09:02:00,69.0,59.2,30.00,WSW,255,0.0,0.0,71,0.00,CLR,,0.00,WeatherDisplay:10.37,2013-07-17 16:02:00,
2013-07-17 09:07:00,69.4,59.2,30.00,WSW,255,0.0,0.0,70,0.00,CLR,,0.00,WeatherDisplay:10.37,2013-07-17 16:07:00,
2013-07-17 09:12:00,69.8,59.2,30.00,East,101,1.2,0.0,69,0.00,CLR,,0.00,WeatherDisplay:10.37,2013-07-17 16:12:00,
2013-07-17 09:17:00,70.1,59.5,30.00,ESE,107,0.0,0.0,69,0.00,CLR,,0.00,WeatherDisplay:10.37,2013-07-17 16:17:00,
2013-07-17 09:22:00,70.5,59.4,30.00,West,266,1.2,1.2,68,0.00,CLR,,0.00,WeatherDisplay:10.37,2013-07-17 16:22:00,
2013-07-17 09:27:00,70.8,59.3,29.99,SW,216,0.0,0.0,67,0.00,CLR,,0.00,WeatherDisplay:10.37,2013-07-17 16:27:00,
2013-07-17 09:32:00,71.4,59.0,29.99,West,266,1.2,1.2,65,0.00,CLR,,0.00,WeatherDisplay:10.37,2013-07-17 16:32:00,
2013-07-17 09:37:00,71.8,60.2,29.99,WSW,240,0.0,0.0,67,0.00,CLR,,0.00,WeatherDisplay:10.37,2013-07-17 16:37:00,
2013-07-17 09:43:00,72.2,59.3,30.00,WSW,240,1.2,1.2,64,0.00,CLR,,0.00,WeatherDisplay:10.37,2013-07-17 16:43:00,
2013-07-17 09:48:00,72.6,59.3,29.99,WSW,240,1.2,1.2,63,0.00,CLR,,0.00,WeatherDisplay:10.37,2013-07-17 16:48:00,
2013-07-17 09:53:00,72.9,58.7,29.99,SW,235,1.2,1.2,61,0.00,CLR,,0.00,WeatherDisplay:10.37,2013-07-17 16:53:00,
2013-07-17 09:58:00,73.3,59.5,29.99,SW,224,0.0,0.0,62,0.00,CLR,,0.00,WeatherDisplay:10.37,2013-07-17 16:58:00,
2013-07-17 10:03:00,73.6,59.3,29.99,SSE,159,0.0,0.0,61,0.00,CLR,,0.00,WeatherDisplay:10.37,2013-07-17 17:03:00,
2013-07-17 10:08:00,73.9,59.6,29.99,ESE,120,1.0,1.0,61,0.00,CLR,,0.00,WeatherDisplay:10.37,2013-07-17 17:08:00,
2013-07-17 10:13:00,74.4,59.1,29.99,SW,218,0.0,0.0,59,0.00,CLR,,0.00,WeatherDisplay:10.37,2013-07-17 17:13:00,
2013-07-17 10:18:00,74.8,59.5,29.99,SSW,212,1.2,0.0,59,0.00,CLR,,0.00,WeatherDisplay:10.37,2013-07-17 17:18:00,
2013-07-17 10:23:00,75.1,59.3,29.99,SW,217,1.2,1.2,58,0.00,CLR,,0.00,WeatherDisplay:10.37,2013-07-17 17:23:00,
2013-07-17 10:28:00,75.3,59.5,29.99,WSW,252,2.3,2.3,58,0.00,CLR,,0.00,WeatherDisplay:10.37,2013-07-17 17:28:00,
2013-07-17 10:33:00,75.5,59.7,29.99,West,266,1.2,0.0,58,0.00,CLR,,0.00,WeatherDisplay:10.37,2013-07-17 17:33:00,
2013-07-17 10:38:00,75.7,58.4,29.99,West,277,0.0,0.4,55,0.00,CLR,,0.00,WeatherDisplay:10.37,2013-07-17 17:38:00,
2013-07-17 10:43:00,75.9,59.1,29.99,South,191,1.2,1.2,56,0.00,CLR,,0.00,WeatherDisplay:10.37,2013-07-17 17:43:00,
2013-07-17 10:48:00,76.3,59.9,29.99,WSW,249,2.0,2.0,57,0.00,CLR,,0.00,WeatherDisplay:10.37,2013-07-17 17:48:00,
2013-07-17 10:53:00,76.6,59.7,29.99,WNW,288,0.0,0.0,56,0.00,CLR,,0.00,WeatherDisplay:10.37,2013-07-17 17:53:00,
2013-07-17 10:58:00,76.8,59.4,29.99,NW,308,2.0,2.0,55,0.00,CLR,,0.00,WeatherDisplay:10.37,2013-07-17 17:58:00,
2013-07-17 11:03:00,77.3,59.4,29.99,SE,129,1.2,1.2,54,0.00,CLR,,0.00,WeatherDisplay:10.37,2013-07-17 18:03:00,
2013-07-17 11:08:00,77.6,59.6,29.99,North,353,3.0,3.0,54,0.00,CLR,,0.00,WeatherDisplay:10.37,2013-07-17 18:08:00,
2013-07-17 11:13:00,77.9,58.3,29.99,SE,143,1.2,0.0,51,0.00,CLR,,0.00,WeatherDisplay:10.37,2013-07-17 18:13:00,
2013-07-17 11:18:00,78.2,59.1,29.98,NW,305,2.3,2.3,52,0.00,CLR,,0.00,WeatherDisplay:10.37,2013-07-17 18:18:00,
2013-07-17 11:23:00,78.6,58.4,29.98,NNW,333,1.0,1.0,50,0.00,CLR,,0.00,WeatherDisplay:10.37,2013-07-17 18:23:00,
2013-07-17 11:28:00,79.0,58.8,29.98,NNW,336,1.2,1.2,50,0.00,CLR,,0.00,WeatherDisplay:10.37,2013-07-17 18:28:00,
2013-07-17 11:33:00,79.1,59.4,29.98,NW,322,3.5,3.5,51,0.00,CLR,,0.00,WeatherDisplay:10.37,2013-07-17 18:33:00,
2013-07-17 11:38:00,79.7,58.8,29.98,North,351,2.3,2.3,49,0.00,CLR,,0.00,WeatherDisplay:10.37,2013-07-17 18:38:00,
2013-07-17 11:43:00,79.9,57.9,29.98,NNW,333,2.3,2.3,47,0.00,CLR,,0.00,WeatherDisplay:10.37,2013-07-17 18:43:00,
2013-07-17 11:48:00,80.5,57.8,29.98,WNW,293,2.3,2.3,46,0.00,CLR,,0.00,WeatherDisplay:10.37,2013-07-17 18:48:00,
2013-07-17 11:53:00,80.9,57.6,29.98,NW,325,3.5,3.5,45,0.00,CLR,,0.00,WeatherDisplay:10.37,2013-07-17 18:53:00,
2013-07-17 11:58:00,81.2,57.8,29.98,NNW,330,1.2,1.2,45,0.00,CLR,,0.00,WeatherDisplay:10.37,2013-07-17 18:58:00,
2013-07-17 12:03:00,81.4,57.4,29.98,SW,218,3.5,3.5,44,0.00,CLR,,0.00,WeatherDisplay:10.37,2013-07-17 19:03:00,
2013-07-17 12:08:00,81.7,57.0,29.98,NNW,347,2.3,2.3,43,0.00,CLR,,0.00,WeatherDisplay:10.37,2013-07-17 19:08:00,
2013-07-17 12:13:00,82.1,57.4,29.98,North,353,3.5,3.5,43,0.00,CLR,,0.00,WeatherDisplay:10.37,2013-07-17 19:13:00,
2013-07-17 12:18:00,82.8,55.3,29.98,NNE,18,3.5,3.5,39,0.00,CLR,,0.00,WeatherDisplay:10.37,2013-07-17 19:18:00,
2013-07-17 12:23:00,83.5,57.3,29.98,NNE,16,1.2,1.2,41,0.00,CLR,,0.00,WeatherDisplay:10.37,2013-07-17 19:23:00,
2013-07-17 12:28:00,84.5,57.5,29.98,WSW,249,2.3,2.3,40,0.00,CLR,,0.00,WeatherDisplay:10.37,2013-07-17 19:28:00,
2013-07-17 12:33:00,85.0,56.5,29.97,West,273,2.3,2.3,38,0.00,CLR,,0.00,WeatherDisplay:10.37,2013-07-17 19:33:00,
2013-07-17 12:38:00,85.6,55.6,29.97,NE,36,4.6,4.6,36,0.00,CLR,,0.00,WeatherDisplay:10.37,2013-07-17 19:38:00,
2013-07-17 12:43:00,85.4,54.6,29.97,WNW,285,3.5,3.5,35,0.00,CLR,,0.00,WeatherDisplay:10.37,2013-07-17 19:43:00,
2013-07-17 12:48:00,85.4,55.4,29.97,NNW,342,2.3,2.3,36,0.00,CLR,,0.00,WeatherDisplay:10.37,2013-07-17 19:48:00,
2013-07-17 12:53:00,86.0,55.2,29.97,ESE,117,1.2,1.2,35,0.00,CLR,,0.00,WeatherDisplay:10.37,2013-07-17 19:53:00,
2013-07-17 12:58:00,85.8,55.0,29.97,NW,307,2.3,2.3,35,0.00,CLR,,0.00,WeatherDisplay:10.37,2013-07-17 19:58:00,
2013-07-17 13:03:00,86.0,55.9,29.97,North,8,2.3,2.3,36,0.00,CLR,,0.00,WeatherDisplay:10.37,2013-07-17 20:03:00,
2013-07-17 13:08:00,86.4,55.5,29.97,North,5,2.3,2.3,35,0.00,CLR,,0.00,WeatherDisplay:10.37,2013-07-17 20:08:00,
2013-07-17 13:13:00,87.0,56.0,29.97,WSW,246,2.3,2.3,35,0.00,CLR,,0.00,WeatherDisplay:10.37,2013-07-17 20:13:00,
2013-07-17 13:18:00,87.7,56.7,29.97,NW,309,3.5,3.5,35,0.00,CLR,,0.00,WeatherDisplay:10.37,2013-07-17 20:18:00,
2013-07-17 13:23:00,87.6,56.6,29.97,NNW,335,1.2,1.2,35,0.00,CLR,,0.00,WeatherDisplay:10.37,2013-07-17 20:23:00,
2013-07-17 13:28:00,87.7,55.9,29.96,West,262,3.5,3.5,34,0.00,CLR,,0.00,WeatherDisplay:10.37,2013-07-17 20:28:00,
2013-07-17 13:33:00,88.1,57.0,29.96,NNW,341,2.3,2.3,35,0.00,CLR,,0.00,WeatherDisplay:10.37,2013-07-17 20:33:00,
2013-07-17 13:38:00,87.8,55.9,29.96,NNW,330,3.5,3.5,34,0.00,CLR,,0.00,WeatherDisplay:10.37,2013-07-17 20:38:00,
2013-07-17 13:43:00,88.0,56.1,29.96,NW,322,1.2,1.2,34,0.00,CLR,,0.00,WeatherDisplay:10.37,2013-07-17 20:43:00,
2013-07-17 13:48:00,88.3,56.4,29.96,North,354,2.3,2.3,34,0.00,CLR,,0.00,WeatherDisplay:10.37,2013-07-17 20:48:00,
2013-07-17 13:53:00,88.7,56.7,29.95,West,271,3.5,3.5,34,0.00,CLR,,0.00,WeatherDisplay:10.37,2013-07-17 20:53:00,
2013-07-17 13:58:00,88.8,56.8,29.95,WNW,294,3.5,3.5,34,0.00,CLR,,0.00,WeatherDisplay:10.37,2013-07-17 20:58:00,
2013-07-17 14:03:00,89.3,55.6,29.95,NNW,336,3.5,3.5,32,0.00,CLR,,0.00,WeatherDisplay:10.37,2013-07-17 21:03:00,
2013-07-17 14:08:00,89.2,56.3,29.95,WSW,243,0.0,0.1,33,0.00,CLR,,0.00,WeatherDisplay:10.37,2013-07-17 21:08:00,
2013-07-17 14:13:00,89.9,56.9,29.95,North,356,4.0,4.0,33,0.00,CLR,,0.00,WeatherDisplay:10.37,2013-07-17 21:13:00,
2013-07-17 14:18:00,90.5,57.5,29.95,SE,125,1.2,1.2,33,0.00,CLR,,0.00,WeatherDisplay:10.37,2013-07-17 21:18:00,
2013-07-17 14:23:00,91.1,57.1,29.94,NNW,333,3.5,3.5,32,0.00,CLR,,0.00,WeatherDisplay:10.37,2013-07-17 21:23:00,
2013-07-17 14:28:00,90.9,56.1,29.94,NNW,328,3.5,3.5,31,0.00,CLR,,0.00,WeatherDisplay:10.37,2013-07-17 21:28:00,
2013-07-17 14:33:00,90.8,56.0,29.94,North,9,2.3,2.3,31,0.00,CLR,,0.00,WeatherDisplay:10.37,2013-07-17 21:33:00,
2013-07-17 14:38:00,90.7,57.6,29.94,North,350,3.5,3.5,33,0.00,CLR,,0.00,WeatherDisplay:10.37,2013-07-17 21:38:00,
2013-07-17 14:43:00,90.8,56.0,29.94,NNE,16,3.5,3.5,31,0.00,CLR,,0.00,WeatherDisplay:10.37,2013-07-17 21:43:00,
2013-07-17 14:48:00,90.3,58.1,29.94,West,269,3.5,3.5,34,0.00,CLR,,0.00,WeatherDisplay:10.37,2013-07-17 21:48:00,
2013-07-17 14:53:00,90.9,57.8,29.93,NW,309,3.5,3.5,33,0.00,CLR,,0.00,WeatherDisplay:10.37,2013-07-17 21:53:00,
2013-07-17 14:58:00,91.0,57.9,29.93,WSW,252,3.5,3.5,33,0.00,CLR,,0.00,WeatherDisplay:10.37,2013-07-17 21:58:00,
2013-07-17 15:03:00,91.5,58.3,29.93,NNW,333,3.5,3.5,33,0.00,CLR,,0.00,WeatherDisplay:10.37,2013-07-17 22:03:00,
2013-07-17 15:08:00,91.8,56.9,29.93,North,11,6.9,6.9,31,0.00,CLR,,0.00,WeatherDisplay:10.37,2013-07-17 22:08:00,
2013-07-17 15:13:00,91.4,57.4,29.93,SW,235,4.6,4.6,32,0.00,CLR,,0.00,WeatherDisplay:10.37,2013-07-17 22:13:00,
2013-07-17 15:18:00,91.8,56.9,29.93,NNW,328,2.3,2.3,31,0.00,CLR,,0.00,WeatherDisplay:10.37,2013-07-17 22:18:00,
2013-07-17 15:23:00,92.3,55.4,29.93,ENE,71,2.3,2.3,29,0.00,CLR,,0.00,WeatherDisplay:10.37,2013-07-17 22:23:00,
2013-07-17 15:28:00,92.4,55.5,29.93,North,353,3.5,3.5,29,0.00,CLR,,0.00,WeatherDisplay:10.37,2013-07-17 22:28:00,
2013-07-17 15:33:00,92.2,55.4,29.93,NW,307,2.3,2.3,29,0.00,CLR,,0.00,WeatherDisplay:10.37,2013-07-17 22:33:00,
2013-07-17 15:38:00,92.6,55.7,29.92,SW,233,2.3,2.3,29,0.00,CLR,,0.00,WeatherDisplay:10.37,2013-07-17 22:38:00,
2013-07-17 15:43:00,92.6,53.7,29.92,NNW,347,3.5,3.5,27,0.00,CLR,,0.00,WeatherDisplay:10.37,2013-07-17 22:43:00,
2013-07-17 15:48:00,92.3,55.4,29.92,West,274,2.3,2.3,29,0.00,CLR,,0.00,WeatherDisplay:10.37,2013-07-17 22:48:00,
2013-07-17 15:53:00,92.6,54.7,29.92,North,6,4.0,4.0,28,0.00,CLR,,0.00,WeatherDisplay:10.37,2013-07-17 22:53:00,
2013-07-17 15:58:00,92.9,54.0,29.92,West,279,3.5,3.5,27,0.00,CLR,,0.00,WeatherDisplay:10.37,2013-07-17 22:58:00,
2013-07-17 16:03:00,93.2,55.2,29.92,SW,226,4.6,4.6,28,0.00,CLR,,0.00,WeatherDisplay:10.37,2013-07-17 23:03:00,
2013-07-17 16:08:00,93.7,55.7,29.91,West,274,3.0,3.0,28,0.00,CLR,,0.00,WeatherDisplay:10.37,2013-07-17 23:08:00,
2013-07-17 16:13:00,93.8,55.8,29.91,WSW,255,1.2,1.2,28,0.00,CLR,,0.00,WeatherDisplay:10.37,2013-07-17 23:13:00,
2013-07-17 16:18:00,94.0,53.9,29.91,NNW,333,3.5,3.5,26,0.00,CLR,,0.00,WeatherDisplay:10.37,2013-07-17 23:18:00,
2013-07-17 16:23:00,94.0,52.8,29.91,NW,315,3.5,3.5,25,0.00,CLR,,0.00,WeatherDisplay:10.37,2013-07-17 23:23:00,
2013-07-17 16:28:00,93.8,54.8,29.91,West,277,3.5,3.5,27,0.00,CLR,,0.00,WeatherDisplay:10.37,2013-07-17 23:28:00,
2013-07-17 16:33:00,93.5,52.4,29.90,North,9,2.3,2.3,25,0.00,CLR,,0.00,WeatherDisplay:10.37,2013-07-17 23:33:00,
2013-07-17 16:38:00,94.2,51.9,29.90,NE,40,3.5,3.5,24,0.00,CLR,,0.00,WeatherDisplay:10.37,2013-07-17 23:38:00,
2013-07-17 16:43:00,94.6,51.1,29.90,NNW,347,1.2,1.2,23,0.00,CLR,,0.00,WeatherDisplay:10.37,2013-07-17 23:43:00,
2013-07-17 16:48:00,94.0,53.9,29.90,West,262,2.3,2.3,26,0.00,CLR,,0.00,WeatherDisplay:10.37,2013-07-17 23:48:00,
2013-07-17 16:53:00,94.2,55.1,29.90,WNW,285,3.5,3.5,27,0.00,CLR,,0.00,WeatherDisplay:10.37,2013-07-17 23:53:00,
2013-07-17 16:58:00,94.7,54.5,29.90,WSW,256,4.6,4.6,26,0.00,CLR,,0.00,WeatherDisplay:10.37,2013-07-17 23:58:00,
2013-07-17 17:03:00,94.8,54.6,29.90,North,358,5.8,5.8,26,0.00,CLR,,0.00,WeatherDisplay:10.37,2013-07-18 00:03:00,
2013-07-17 17:08:00,94.9,56.7,29.89,NNE,16,5.8,5.8,28,0.00,CLR,,0.00,WeatherDisplay:10.37,2013-07-18 00:08:00,
2013-07-17 17:13:00,94.5,55.4,29.89,NNW,345,2.3,2.3,27,0.00,CLR,,0.00,WeatherDisplay:10.37,2013-07-18 00:13:00,
2013-07-17 17:18:00,94.8,57.6,29.89,North,356,2.3,2.3,29,0.00,CLR,,0.00,WeatherDisplay:10.37,2013-07-18 00:18:00,
2013-07-17 17:23:00,95.7,58.4,29.89,West,262,2.3,2.3,29,0.00,CLR,,0.00,WeatherDisplay:10.37,2013-07-18 00:23:00,
2013-07-17 17:28:00,95.7,58.4,29.89,NNW,328,3.5,3.5,29,0.00,CLR,,0.00,WeatherDisplay:10.37,2013-07-18 00:28:00,
2013-07-17 17:33:00,95.4,58.1,29.89,NW,316,3.5,3.5,29,0.00,CLR,,0.00,WeatherDisplay:10.37,2013-07-18 00:33:00,
2013-07-17 17:38:00,95.0,57.8,29.89,North,356,3.5,3.5,29,0.00,CLR,,0.00,WeatherDisplay:10.37,2013-07-18 00:38:00,
2013-07-17 17:43:00,94.6,59.3,29.89,NW,307,3.5,3.5,31,0.00,CLR,,0.00,WeatherDisplay:10.37,2013-07-18 00:43:00,
2013-07-17 17:48:00,94.4,59.1,29.89,NNW,328,3.5,3.5,31,0.00,CLR,,0.00,WeatherDisplay:10.37,2013-07-18 00:48:00,
2013-07-17 17:53:00,94.4,59.1,29.88,NW,313,3.5,3.5,31,0.00,CLR,,0.00,WeatherDisplay:10.37,2013-07-18 00:53:00,
2013-07-17 17:58:00,94.7,58.4,29.88,NNW,333,1.2,1.2,30,0.00,CLR,,0.00,WeatherDisplay:10.37,2013-07-18 00:58:00,
2013-07-17 18:03:00,94.7,59.4,29.88,WNW,283,3.5,3.5,31,0.00,CLR,,0.00,WeatherDisplay:10.37,2013-07-18 01:03:00,
2013-07-17 18:08:00,94.2,58.9,29.88,SW,229,2.3,2.3,31,0.00,CLR,,0.00,WeatherDisplay:10.37,2013-07-18 01:08:00,
2013-07-17 18:13:00,94.5,58.3,29.88,NNW,343,3.5,3.5,30,0.00,CLR,,0.00,WeatherDisplay:10.37,2013-07-18 01:13:00,
2013-07-17 18:18:00,94.3,59.0,29.88,NNE,12,3.5,3.5,31,0.00,CLR,,0.00,WeatherDisplay:10.37,2013-07-18 01:18:00,
2013-07-17 18:23:00,94.5,59.2,29.88,North,350,3.5,3.5,31,0.00,CLR,,0.00,WeatherDisplay:10.37,2013-07-18 01:23:00,
2013-07-17 18:28:00,94.7,59.4,29.88,South,176,1.2,1.2,31,0.00,CLR,,0.00,WeatherDisplay:10.37,2013-07-18 01:28:00,
2013-07-17 18:33:00,95.3,59.0,29.88,SW,221,1.2,1.2,30,0.00,CLR,,0.00,WeatherDisplay:10.37,2013-07-18 01:33:00,
2013-07-17 18:38:00,95.2,58.9,29.88,SW,222,3.5,3.5,30,0.00,CLR,,0.00,WeatherDisplay:10.37,2013-07-18 01:38:00,
2013-07-17 18:43:00,95.0,58.7,29.88,West,260,1.2,1.2,30,0.00,CLR,,0.00,WeatherDisplay:10.37,2013-07-18 01:43:00,
2013-07-17 18:48:00,94.9,57.7,29.88,NNW,339,3.0,3.0,29,0.00,CLR,,0.00,WeatherDisplay:10.37,2013-07-18 01:48:00,
2013-07-17 18:53:00,94.3,59.0,29.88,North,9,3.5,3.5,31,0.00,CLR,,0.00,WeatherDisplay:10.37,2013-07-18 01:53:00,
2013-07-17 18:58:00,93.9,58.7,29.88,NNW,328,0.0,0.0,31,0.00,CLR,,0.00,WeatherDisplay:10.37,2013-07-18 01:58:00,
2013-07-17 19:03:00,93.6,57.5,29.88,West,277,2.0,2.0,30,0.00,CLR,,0.00,WeatherDisplay:10.37,2013-07-18 02:03:00,
2013-07-17 19:08:00,92.6,57.6,29.88,NNW,342,1.2,0.0,31,0.00,CLR,,0.00,WeatherDisplay:10.37,2013-07-18 02:08:00,
2013-07-17 19:13:00,91.9,57.8,29.88,WSW,255,2.3,2.3,32,0.00,CLR,,0.00,WeatherDisplay:10.37,2013-07-18 02:13:00,
2013-07-17 19:18:00,91.2,58.1,29.88,NNE,12,0.0,0.0,33,0.00,CLR,,0.00,WeatherDisplay:10.37,2013-07-18 02:18:00,
2013-07-17 19:23:00,90.8,58.6,29.88,NNW,347,0.0,0.0,34,0.00,CLR,,0.00,WeatherDisplay:10.37,2013-07-18 02:23:00,
2013-07-17 19:28:00,90.2,58.8,29.88,NNW,343,1.2,1.2,35,0.00,CLR,,0.00,WeatherDisplay:10.37,2013-07-18 02:28:00,
2013-07-17 19:33:00,89.6,59.1,29.88,North,4,2.0,2.0,36,0.00,CLR,,0.00,WeatherDisplay:10.37,2013-07-18 02:33:00,
2013-07-17 19:38:00,89.1,58.7,29.88,North,360,1.2,0.0,36,0.00,CLR,,0.00,WeatherDisplay:10.37,2013-07-18 02:38:00,
2013-07-17 19:43:00,88.7,59.1,29.88,NNW,330,1.2,1.2,37,0.00,CLR,,0.00,WeatherDisplay:10.37,2013-07-18 02:43:00,
2013-07-17 19:48:00,88.3,58.7,29.88,NNW,342,0.0,0.0,37,0.00,CLR,,0.00,WeatherDisplay:10.37,2013-07-18 02:48:00,
2013-07-17 19:53:00,88.0,59.2,29.88,NNW,336,0.0,0.0,38,0.00,CLR,,0.00,WeatherDisplay:10.37,2013-07-18 02:53:00,
2013-07-17 19:58:00,87.6,58.9,29.88,NNW,335,0.0,0.0,38,0.00,CLR,,0.00,WeatherDisplay:10.37,2013-07-18 02:58:00,
2013-07-17 20:03:00,87.2,59.2,29.88,NNW,336,0.0,0.0,39,0.00,CLR,,0.00,WeatherDisplay:10.37,2013-07-18 03:03:00,
2013-07-17 20:08:00,86.8,59.6,29.88,NNW,335,0.0,0.0,40,0.00,CLR,,0.00,WeatherDisplay:10.37,2013-07-18 03:08:00,
2013-07-17 20:13:00,86.5,59.3,29.89,NNW,335,0.0,0.0,40,0.00,CLR,,0.00,WeatherDisplay:10.37,2013-07-18 03:13:00,
2013-07-17 20:18:00,86.2,59.0,29.89,NNW,335,0.0,0.0,40,0.00,CLR,,0.00,WeatherDisplay:10.37,2013-07-18 03:18:00,
2013-07-17 20:23:00,85.8,58.7,29.89,NNW,335,0.0,0.0,40,0.00,CLR,,0.00,WeatherDisplay:10.37,2013-07-18 03:23:00,
2013-07-17 20:28:00,85.5,58.4,29.89,NNW,335,1.2,0.0,40,0.00,CLR,,0.00,WeatherDisplay:10.37,2013-07-18 03:28:00,
2013-07-17 20:33:00,85.2,58.2,29.89,NNW,335,0.0,0.0,40,0.00,CLR,,0.00,WeatherDisplay:10.37,2013-07-18 03:33:00,
2013-07-17 20:38:00,84.9,59.2,29.89,NNW,335,0.0,0.0,42,0.00,CLR,,0.00,WeatherDisplay:10.37,2013-07-18 03:38:00,
2013-07-17 20:43:00,84.4,58.1,29.89,NNW,336,0.0,0.0,41,0.00,CLR,,0.00,WeatherDisplay:10.37,2013-07-18 03:43:00,
2013-07-17 20:48:00,84.0,57.1,29.89,NNW,336,0.0,0.0,40,0.00,CLR,,0.00,WeatherDisplay:10.37,2013-07-18 03:48:00,
2013-07-17 20:53:00,83.8,57.6,29.89,NNW,335,0.0,0.0,41,0.00,CLR,,0.00,WeatherDisplay:10.37,2013-07-18 03:53:00,
2013-07-17 20:58:00,83.7,58.2,29.89,NNW,335,0.0,0.0,42,0.00,CLR,,0.00,WeatherDisplay:10.37,2013-07-18 03:58:00,
2013-07-17 21:01:00,83.6,58.1,29.90,NNW,335,0.0,0.0,42,0.00,CLR,,0.00,WeatherDisplay:10.37,2013-07-18 04:01:00,
2013-07-17 21:06:00,83.2,58.4,29.90,NNW,335,0.0,0.0,43,0.00,CLR,,0.00,WeatherDisplay:10.37,2013-07-18 04:06:00,
2013-07-17 21:11:00,83.0,58.8,29.90,NNW,336,0.0,0.0,44,0.00,CLR,,0.00,WeatherDisplay:10.37,2013-07-18 04:11:00,
2013-07-17 21:16:00,82.8,59.3,29.90,NNW,336,0.0,0.0,45,0.00,CLR,,0.00,WeatherDisplay:10.37,2013-07-18 04:16:00,
2013-07-17 21:21:00,82.5,59.6,29.90,NNW,335,0.0,0.0,46,0.00,CLR,,0.00,WeatherDisplay:10.37,2013-07-18 04:21:00,
2013-07-17 21:26:00,82.2,60.6,29.90,NNW,335,0.0,0.0,48,0.00,CLR,,0.00,WeatherDisplay:10.37,2013-07-18 04:26:00,
2013-07-17 21:31:00,81.9,61.4,29.90,NNW,336,0.0,0.0,50,0.00,CLR,,0.00,WeatherDisplay:10.37,2013-07-18 04:31:00,
2013-07-17 21:36:00,81.5,61.1,29.91,NNW,335,0.0,0.0,50,0.00,CLR,,0.00,WeatherDisplay:10.37,2013-07-18 04:36:00,
2013-07-17 21:41:00,81.0,60.6,29.91,NNW,336,0.0,0.0,50,0.00,CLR,,0.00,WeatherDisplay:10.37,2013-07-18 04:41:00,
2013-07-17 21:46:00,80.5,61.3,29.91,NNW,336,0.0,0.0,52,0.00,CLR,,0.00,WeatherDisplay:10.37,2013-07-18 04:46:00,
2013-07-17 21:51:00,79.9,61.2,29.91,NNW,336,0.0,0.0,53,0.00,CLR,,0.00,WeatherDisplay:10.37,2013-07-18 04:51:00,
2013-07-17 21:56:00,79.3,59.0,29.91,NNW,336,0.0,0.0,50,0.00,CLR,,0.00,WeatherDisplay:10.37,2013-07-18 04:56:00,
2013-07-17 22:01:00,79.1,59.4,29.92,NNW,336,0.0,0.0,51,0.00,CLR,,0.00,WeatherDisplay:10.37,2013-07-18 05:01:00,
2013-07-17 22:06:00,79.2,59.5,29.91,NNW,335,0.0,0.0,51,0.00,CLR,,0.00,WeatherDisplay:10.37,2013-07-18 05:06:00,
2013-07-17 22:11:00,79.2,59.5,29.91,NNW,336,0.0,0.0,51,0.00,CLR,,0.00,WeatherDisplay:10.37,2013-07-18 05:11:00,
2013-07-17 22:16:00,79.1,61.5,29.92,NNW,336,0.0,0.0,55,0.00,CLR,,0.00,WeatherDisplay:10.37,2013-07-18 05:16:00,
2013-07-17 22:21:00,78.8,60.7,29.92,NNW,335,0.0,0.0,54,0.00,CLR,,0.00,WeatherDisplay:10.37,2013-07-18 05:21:00,
2013-07-17 22:26:00,78.3,60.8,29.92,NNW,336,0.0,0.0,55,0.00,CLR,,0.00,WeatherDisplay:10.37,2013-07-18 05:26:00,
2013-07-17 22:31:00,78.0,61.0,29.92,NNW,336,0.0,0.0,56,0.00,CLR,,0.00,WeatherDisplay:10.37,2013-07-18 05:31:00,
2013-07-17 22:36:00,77.6,60.7,29.92,NNW,336,0.0,0.0,56,0.00,CLR,,0.00,WeatherDisplay:10.37,2013-07-18 05:36:00,
2013-07-17 22:41:00,77.3,60.4,29.92,NNW,336,0.0,0.0,56,0.00,CLR,,0.00,WeatherDisplay:10.37,2013-07-18 05:41:00,
2013-07-17 22:46:00,77.0,61.1,29.92,NNW,336,0.0,0.0,58,0.00,CLR,,0.00,WeatherDisplay:10.37,2013-07-18 05:46:00,
2013-07-17 22:51:00,76.6,60.2,29.92,NNW,336,0.0,0.0,57,0.00,CLR,,0.00,WeatherDisplay:10.37,2013-07-18 05:51:00,
2013-07-17 22:56:00,76.2,60.8,29.92,NNW,336,0.0,0.0,59,0.00,CLR,,0.00,WeatherDisplay:10.37,2013-07-18 05:56:00,
2013-07-17 23:01:00,75.8,60.0,29.92,NNW,335,0.0,0.0,58,0.00,CLR,,0.00,WeatherDisplay:10.37,2013-07-18 06:01:00,
2013-07-17 23:06:00,75.6,60.3,29.92,NNW,335,0.0,0.0,59,0.00,CLR,,0.00,WeatherDisplay:10.37,2013-07-18 06:06:00,
2013-07-17 23:11:00,75.4,60.1,29.92,NNW,336,0.0,0.0,59,0.00,CLR,,0.00,WeatherDisplay:10.37,2013-07-18 06:11:00,
2013-07-17 23:16:00,75.2,60.8,29.92,NNW,336,0.0,0.0,61,0.00,CLR,,0.00,WeatherDisplay:10.37,2013-07-18 06:16:00,
2013-07-17 23:21:00,75.1,61.2,29.92,NNW,335,0.0,0.0,62,0.00,CLR,,0.00,WeatherDisplay:10.37,2013-07-18 06:21:00,
2013-07-17 23:26:00,74.8,61.4,29.93,NNW,336,0.0,0.0,63,0.00,CLR,,0.00,WeatherDisplay:10.37,2013-07-18 06:26:00,
2013-07-17 23:31:00,74.4,60.5,29.93,NNW,335,0.0,0.0,62,0.00,CLR,,0.00,WeatherDisplay:10.37,2013-07-18 06:31:00,
2013-07-17 23:36:00,74.1,60.2,29.92,NNW,336,0.0,0.0,62,0.00,CLR,,0.00,WeatherDisplay:10.37,2013-07-18 06:36:00,
2013-07-17 23:41:00,74.0,60.6,29.93,NNW,335,0.0,0.0,63,0.00,CLR,,0.00,WeatherDisplay:10.37,2013-07-18 06:41:00,
2013-07-17 23:46:00,73.9,61.0,29.93,NNW,335,0.0,0.0,64,0.00,CLR,,0.00,WeatherDisplay:10.37,2013-07-18 06:46:00,
2013-07-17 23:51:00,73.7,60.8,29.93,NNW,336,0.0,0.0,64,0.00,CLR,,0.00,WeatherDisplay:10.37,2013-07-18 06:51:00,
2013-07-17 23:56:00,73.5,61.0,29.93,NNW,336,0.0,0.0,65,0.00,CLR,,0.00,WeatherDisplay:10.37,2013-07-18 06:56:00,